When you browse on this site, cookies collect data to enhance your experience and personalize the content and advertising you see.
Visit our Privacy Policy to learn more. By continuing to use the site, you agree to this use of cookies and data.
  • In Germany
  • List of Countries
  • For 7 days
  • Water Temperature
  • Satellite Maps
  • Weather Map
  • Weather Widgets
  • user-avatar
    Login

    Hourly Weather Igls

    Today, 21 January, Monday

    Time Temperature Precipitation Wind Pressure Humidity
    00:00 -6°C° 0 mm 1 mps 681 mmHg 83%
    01:00 -6°C° 0 mm 1 mps 682 mmHg 84%
    02:00 -6°C° 0 mm 1 mps 682 mmHg 84%
    03:00 -6°C° 0 mm 1 mps 681 mmHg 84%
    04:00 -7°C° 0 mm 1 mps 681 mmHg 85%
    05:00 -7°C° 0 mm 1 mps 682 mmHg 85%
    06:00 -6°C° 0 mm 1 mps 682 mmHg 85%
    07:00 -6°C° 0 mm 1 mps 682 mmHg 86%
    08:00 -4°C° 0 mm 1 mps 682 mmHg 86%
    09:00 -3°C° 0 mm 1 mps 683 mmHg 86%
    10:00 -2°C° 0 mm 0 mps 683 mmHg 86%
    11:00 0°C° 0 mm 1 mps 683 mmHg 86%
    12:00 +1°C° 0 mm 1 mps 683 mmHg 86%
    13:00 +2°C° 0 mm 1 mps 682 mmHg 86%
    14:00 +1°C° 0 mm 1 mps 682 mmHg 88%
    15:00 +1°C° 0 mm 1 mps 682 mmHg 90%
    16:00 +1°C° 0 mm 1 mps 682 mmHg 92%
    17:00 -1°C° 0 mm 1 mps 682 mmHg 93%
    18:00 -3°C° 0 mm 1 mps 681 mmHg 95%
    19:00 -5°C° 0 mm 0 mps 681 mmHg 96%
    20:00 -6°C° 0 mm 1 mps 681 mmHg 94%
    21:00 -6°C° 0 mm 1 mps 681 mmHg 93%
    22:00 -7°C° 0 mm 1 mps 681 mmHg 91%
    23:00 -7°C° 0 mm 1 mps 681 mmHg 89%

    Tomorrow, 22 January, Tuesday

    Time Temperature Precipitation Wind Pressure Humidity
    00:00 -8°C° 0 mm 1 mps 681 mmHg 87%
    01:00 -8°C° 0 mm 1 mps 680 mmHg 86%
    02:00 -9°C° 0 mm 1 mps 680 mmHg 84%
    03:00 -9°C° 0 mm 1 mps 680 mmHg 83%
    04:00 -9°C° 0 mm 1 mps 679 mmHg 82%
    05:00 -9°C° 0 mm 1 mps 679 mmHg 80%
    06:00 -9°C° 0 mm 1 mps 678 mmHg 78%
    07:00 -9°C° 0 mm 1 mps 678 mmHg 76%
    08:00 -7°C° 0 mm 1 mps 678 mmHg 77%
    09:00 -4°C° 0 mm 1 mps 678 mmHg 77%
    10:00 -3°C° 0 mm 1 mps 678 mmHg 78%
    11:00 -1°C° 0 mm 1 mps 677 mmHg 75%
    12:00 0°C° 0 mm 0 mps 676 mmHg 72%
    13:00 +1°C° 0 mm 0 mps 676 mmHg 68%
    14:00 0°C° 0 mm 0 mps 675 mmHg 74%
    15:00 -1°C° 0 mm 0 mps 674 mmHg 79%
    16:00 -1°C° 0 mm 0 mps 673 mmHg 84%
    17:00 -2°C° 0 mm 1 mps 673 mmHg 82%
    18:00 -4°C° 0 mm 1 mps 672 mmHg 80%
    19:00 -7°C° 0 mm 2 mps 672 mmHg 79%
    20:00 -7°C° 0 mm 2 mps 672 mmHg 75%
    21:00 -7°C° 0 mm 2 mps 671 mmHg 72%
    22:00 -7°C° 0 mm 2 mps 671 mmHg 69%
    23:00 -7°C° 0 mm 2 mps 670 mmHg 68%

    Day after tomorrow, 23 January, Wednesday

    Time Temperature Precipitation Wind Pressure Humidity
    00:00 -7°C° 0 mm 2 mps 670 mmHg 67%
    01:00 -7°C° 0 mm 2 mps 670 mmHg 65%
    02:00 -6°C° 0 mm 1 mps 669 mmHg 65%
    03:00 -7°C° 0 mm 1 mps 669 mmHg 66%
    04:00 -7°C° 0 mm 1 mps 668 mmHg 66%
    05:00 -7°C° 0 mm 1 mps 668 mmHg 68%
    06:00 -7°C° 0 mm 1 mps 668 mmHg 70%
    07:00 -7°C° 0 mm 1 mps 668 mmHg 71%
    08:00 -6°C° 0 mm 1 mps 668 mmHg 74%
    09:00 -4°C° 0 mm 1 mps 668 mmHg 76%
    10:00 -3°C° 0 mm 0 mps 668 mmHg 78%
    11:00 -1°C° 0 mm 1 mps 668 mmHg 77%
    12:00 0°C° 0 mm 1 mps 668 mmHg 77%
    13:00 0°C° 0 mm 1 mps 668 mmHg 76%
    14:00 0°C° 0 mm 1 mps 668 mmHg 81%
    15:00 -1°C° 0 mm 1 mps 668 mmHg 86%
    16:00 -1°C° 0 mm 1 mps 668 mmHg 91%
    17:00 -2°C° 0 mm 1 mps 668 mmHg 92%
    18:00 -5°C° 0 mm 0 mps 669 mmHg 93%
    19:00 -6°C° 0 mm 0 mps 669 mmHg 95%
    20:00 -7°C° 0 mm 0 mps 669 mmHg 93%
    21:00 -7°C° 0 mm 0 mps 669 mmHg 92%
    22:00 -8°C° 0 mm 1 mps 670 mmHg 90%
    23:00 -8°C° 0 mm 1 mps 670 mmHg 89%

    24 January, Thursday

    Time Temperature Precipitation Wind Pressure Humidity
    00:00 -8°C° 0 mm 1 mps 671 mmHg 87%
    01:00 -8°C° 0 mm 1 mps 671 mmHg 86%
    02:00 -9°C° 0 mm 1 mps 671 mmHg 86%
    03:00 -9°C° 0 mm 1 mps 671 mmHg 86%
    04:00 -9°C° 0 mm 1 mps 671 mmHg 87%
    05:00 -9°C° 0 mm 1 mps 672 mmHg 87%
    06:00 -9°C° 0 mm 1 mps 672 mmHg 88%
    07:00 -9°C° 0 mm 1 mps 673 mmHg 89%
    08:00 -8°C° 0 mm 1 mps 674 mmHg 89%
    09:00 -6°C° 0 mm 1 mps 674 mmHg 89%
    10:00 -4°C° 0 mm 1 mps 675 mmHg 89%
    11:00 -3°C° 0 mm 1 mps 675 mmHg 89%
    12:00 -2°C° 0 mm 1 mps 676 mmHg 89%
    13:00 -3°C° 0 mm 2 mps 676 mmHg 89%
    14:00 -4°C° 0.1 mm 2 mps 676 mmHg 90%
    15:00 -4°C° 0.1 mm 2 mps 676 mmHg 91%
    16:00 -4°C° 0.1 mm 2 mps 676 mmHg 92%
    17:00 -5°C° 0 mm 2 mps 677 mmHg 93%
    18:00 -6°C° 0 mm 1 mps 677 mmHg 94%
    19:00 -7°C° 0 mm 1 mps 678 mmHg 95%
    20:00 -7°C° 0 mm 1 mps 678 mmHg 95%
    21:00 -8°C° 0 mm 1 mps 679 mmHg 94%
    22:00 -8°C° 0 mm 1 mps 679 mmHg 94%
    23:00 -9°C° 0 mm 1 mps 679 mmHg 93%

    25 January, Friday

    Time Temperature Precipitation Wind Pressure Humidity
    00:00 -9°C° 0 mm 1 mps 679 mmHg 92%
    01:00 -10°C° 0 mm 1 mps 679 mmHg 92%
    02:00 -10°C° 0 mm 1 mps 679 mmHg 92%
    03:00 -10°C° 0 mm 1 mps 679 mmHg 91%
    04:00 -10°C° 0 mm 1 mps 679 mmHg 91%
    05:00 -10°C° 0 mm 1 mps 680 mmHg 90%
    06:00 -10°C° 0 mm 1 mps 680 mmHg 90%
    07:00 -9°C° 0 mm 1 mps 680 mmHg 89%
    08:00 -8°C° 0 mm 1 mps 681 mmHg 89%
    09:00 -6°C° 0 mm 1 mps 681 mmHg 88%
    10:00 -4°C° 0 mm 1 mps 682 mmHg 87%
    11:00 -2°C° 0 mm 1 mps 682 mmHg 87%
    12:00 -1°C° 0 mm 1 mps 681 mmHg 86%
    13:00 0°C° 0 mm 1 mps 681 mmHg 86%
    14:00 0°C° 0 mm 1 mps 681 mmHg 87%
    15:00 -1°C° 0 mm 1 mps 681 mmHg 88%
    16:00 -1°C° 0 mm 1 mps 681 mmHg 89%
    17:00 -3°C° 0 mm 1 mps 681 mmHg 89%
    18:00 -7°C° 0 mm 2 mps 681 mmHg 88%
    19:00 -8°C° 0 mm 2 mps 681 mmHg 88%
    20:00 -9°C° 0 mm 2 mps 681 mmHg 82%
    21:00 -9°C° 0 mm 2 mps 681 mmHg 76%
    22:00 -9°C° 0 mm 2 mps 681 mmHg 71%
    23:00 -8°C° 0 mm 2 mps 681 mmHg 69%

    26 January, Saturday

    Time Temperature Precipitation Wind Pressure Humidity
    00:00 -7°C° 0 mm 2 mps 681 mmHg 68%
    01:00 -7°C° 0 mm 2 mps 681 mmHg 66%
    02:00 -6°C° 0.1 mm 2 mps 681 mmHg 71%
    03:00 -4°C° 0.1 mm 2 mps 681 mmHg 77%
    04:00 -3°C° 0.1 mm 2 mps 681 mmHg 82%
    05:00 -3°C° 0.1 mm 2 mps 681 mmHg 85%
    06:00 0°C° 0.1 mm 1 mps 681 mmHg 88%
    07:00 0°C° 0.1 mm 1 mps 680 mmHg 90%
    08:00 +1°C° 0.1 mm 1 mps 680 mmHg 91%
    09:00 +2°C° 0.1 mm 1 mps 680 mmHg 91%
    10:00 +4°C° 0.1 mm 1 mps 680 mmHg 92%
    11:00 +4°C° 0 mm 1 mps 680 mmHg 94%
    12:00 +5°C° 0 mm 1 mps 679 mmHg 95%
    13:00 +5°C° 0 mm 1 mps 679 mmHg 97%
    14:00 +4°C° 0 mm 0 mps 678 mmHg 96%
    15:00 +4°C° 0 mm 0 mps 678 mmHg 94%
    16:00 +4°C° 0 mm 0 mps 677 mmHg 93%
    17:00 +3°C° 0 mm 0 mps 677 mmHg 91%
    18:00 +3°C° 0 mm 1 mps 676 mmHg 90%
    19:00 +2°C° 0 mm 1 mps 676 mmHg 89%
    20:00 +1°C° 0.1 mm 1 mps 676 mmHg 89%
    21:00 +1°C° 0.1 mm 1 mps 675 mmHg 88%
    22:00 +1°C° 0.1 mm 1 mps 675 mmHg 88%
    23:00 -1°C° 0.1 mm 2 mps 674 mmHg 88%
    Show more